AFL2144 UUEE-LTAI

Flight info

Callsign AFL2144
Flight time N/A
Altitude 31000
Route TOGMO3H TOGMO M56 ABAGI B105 NIMTA/K0846F320 B105 NATIT/K0846F330 DCT MOLED DCT SL DCT SUBED DCT LIDUS G242 ZG DCT ITAKA/K0856F340 DCT KUDAS DCT MKL DCT KUFAN/N0459F340 DCT NOLGA UG261 TBN UW706 SIV UT54 HALIL/N0455F350 UW77 HISAR
Aircraft A321/M-SDE3FGHIRWY/LB1

Departure

Time 2026-05-05 13:30
Airport Sheremetyevo International Airport (UUEE)

Arrival

Time N/A
Airport Antalya International Airport (LTAI)
Time Latitude Longitude Altitude Speed Heading
2026-05-05 12:33 55.97795 37.41038 639 ft 0 kts 76°
2026-05-05 13:19 55.97789 37.40997 623 ft 4 kts 74°
2026-05-05 13:19 55.97782 37.40951 642 ft 4 kts 76°
2026-05-05 13:20 55.97777 37.40905 639 ft 4 kts 99°
2026-05-05 13:20 55.97783 37.40879 640 ft 1 kts 165°
2026-05-05 13:20 55.97784 37.40878 640 ft 0 kts 165°
2026-05-05 13:23 55.97770 37.40885 647 ft 4 kts 165°
2026-05-05 13:23 55.97762 37.40889 642 ft 6 kts 165°
2026-05-05 13:23 55.97685 37.40925 641 ft 13 kts 165°
2026-05-05 13:23 55.97615 37.40958 647 ft 4 kts 163°
2026-05-05 13:24 55.97606 37.40982 647 ft 1 kts 95°
2026-05-05 13:24 55.97606 37.40988 647 ft 1 kts 89°
2026-05-05 13:24 55.97607 37.41046 645 ft 8 kts 88°
2026-05-05 13:24 55.97597 37.41120 641 ft 5 kts 129°
2026-05-05 13:25 55.97572 37.41145 639 ft 5 kts 152°
2026-05-05 13:25 55.97539 37.41214 639 ft 10 kts 91°
2026-05-05 13:25 55.97557 37.41313 640 ft 7 kts 80°
2026-05-05 13:25 55.97567 37.41418 641 ft 10 kts 80°
2026-05-05 13:26 55.97588 37.41523 643 ft 8 kts 76°
2026-05-05 13:26 55.97604 37.41652 646 ft 14 kts 77°
2026-05-05 13:26 55.97635 37.41860 643 ft 18 kts 73°
2026-05-05 13:26 55.97666 37.42062 642 ft 16 kts 75°
2026-05-05 13:27 55.97692 37.42239 643 ft 14 kts 75°
2026-05-05 13:27 55.97715 37.42391 640 ft 12 kts 75°
2026-05-05 13:27 55.97734 37.42519 644 ft 10 kts 75°
2026-05-05 13:27 55.97749 37.42623 642 ft 8 kts 75°
2026-05-05 13:28 55.97749 37.42783 640 ft 16 kts 129°
2026-05-05 13:28 55.97659 37.42829 640 ft 13 kts 167°
2026-05-05 13:28 55.97594 37.42773 641 ft 10 kts 251°
2026-05-05 13:28 55.97587 37.42725 647 ft 0 kts 256°
2026-05-05 13:29 55.97568 37.42594 641 ft 40 kts 255°
2026-05-05 13:29 55.97433 37.41702 640 ft 106 kts 255°
2026-05-05 13:29 55.97194 37.40129 641 ft 156 kts 253°
2026-05-05 13:29 55.96867 37.38154 1065 ft 165 kts 253°
2026-05-05 13:30 55.96555 37.36230 1879 ft 156 kts 255°
2026-05-05 13:30 55.96257 37.34430 2408 ft 151 kts 254°
2026-05-05 13:30 55.95985 37.32529 2647 ft 164 kts 255°
2026-05-05 13:30 55.95678 37.30478 2817 ft 183 kts 255°
2026-05-05 13:31 55.95319 37.28174 2948 ft 201 kts 253°
2026-05-05 13:31 55.94924 37.25670 3066 ft 221 kts 254°
2026-05-05 13:31 55.94483 37.22892 3293 ft 242 kts 254°
2026-05-05 13:31 55.94023 37.19964 3880 ft 248 kts 255°
2026-05-05 13:32 55.93556 37.16997 4595 ft 249 kts 254°
2026-05-05 13:32 55.93085 37.14025 5279 ft 250 kts 254°
2026-05-05 13:32 55.92613 37.11053 6000 ft 249 kts 255°
2026-05-05 13:32 55.92147 37.08078 6686 ft 249 kts 255°
2026-05-05 13:33 55.91732 37.05069 7301 ft 251 kts 264°
2026-05-05 13:33 55.91854 37.01969 7931 ft 254 kts 283°
2026-05-05 13:33 55.92640 36.99116 8560 ft 262 kts 304°
2026-05-05 13:33 55.94020 36.96907 9189 ft 271 kts 320°
2026-05-05 13:34 55.95579 36.94992 9784 ft 273 kts 319°
2026-05-05 13:34 55.97212 36.93213 9959 ft 280 kts 331°
2026-05-05 13:34 55.99133 36.92383 9998 ft 290 kts 351°
2026-05-05 13:34 56.01146 36.92805 10190 ft 306 kts 13°
2026-05-05 13:35 56.03079 36.94524 10759 ft 315 kts 28°
2026-05-05 13:35 56.04929 36.96661 11304 ft 318 kts 28°
2026-05-05 13:35 56.06788 36.98831 11851 ft 321 kts 28°
2026-05-05 13:35 56.08538 37.01361 12358 ft 330 kts 47°
2026-05-05 13:36 56.09691 37.04945 12872 ft 337 kts 72°
2026-05-05 13:36 56.10026 37.09125 13178 ft 348 kts 96°
2026-05-05 13:36 56.09402 37.13322 13394 ft 353 kts 121°
2026-05-05 13:36 56.08226 37.17206 13804 ft 358 kts 122°
2026-05-05 13:37 56.07045 37.21159 14272 ft 362 kts 121°
2026-05-05 13:37 56.05843 37.25223 14397 ft 377 kts 121°
2026-05-05 13:37 56.04590 37.29443 14510 ft 392 kts 121°
2026-05-05 13:37 56.03320 37.33700 15315 ft 380 kts 121°
2026-05-05 13:38 56.02097 37.37825 16171 ft 373 kts 121°
2026-05-05 13:38 56.00887 37.41916 16775 ft 371 kts 121°
2026-05-05 13:38 55.99708 37.45944 17372 ft 370 kts 121°
2026-05-05 13:38 55.98535 37.50031 17984 ft 368 kts 120°
2026-05-05 13:39 55.97426 37.54014 18541 ft 366 kts 119°
2026-05-05 13:39 55.96338 37.58104 19065 ft 364 kts 118°
2026-05-05 13:39 55.95394 37.61850 19565 ft 362 kts 117°
2026-05-05 13:39 55.94424 37.65859 20062 ft 345 kts 116°
2026-05-05 13:40 55.93548 37.69483 20705 ft 297 kts 118°
2026-05-05 13:40 55.92762 37.72671 21112 ft 276 kts 117°
2026-05-05 13:40 55.91948 37.76085 21007 ft 320 kts 118°
2026-05-05 13:40 55.90967 37.79800 21483 ft 338 kts 120°
2026-05-05 13:41 55.89917 37.83587 22217 ft 346 kts 120°
2026-05-05 13:41 55.88818 37.87443 23026 ft 351 kts 121°
2026-05-05 13:41 55.87684 37.91326 23806 ft 355 kts 121°